User: anonymous   Login
Location: Unspecified
(0.0000°N, 0.0000°E)
Time: 08:17:01
(UTC+00:00)
Language:

HESSI - Orbit

View from above orbital plane
View from above orbital plane
View from above satellite
View from above satellite

Ground track
Ground track

The orbit data is extracted from the following two-line orbital elements,

1 27370U 02004A   19018.56061628 +.00001273 +00000-0 +46183-4 0  9997
2 27370 038.0329 103.6054 0011576 083.7227 276.4862 15.30995954935185
Epoch (UTC): 18 January 2019 13:27:17
Eccentricity: 0.0011576
inclination: 38.0329°
perigee height: 465 km
apogee height: 481 km
right ascension of ascending node: 103.6054°
argument of perigee: 83.7227°
revolutions per day: 15.30995954
mean anomaly at epoch: 276.4862°
orbit number at epoch: 93518

The dashed part of the orbit path shows where the satellite is in the earth's shadow,  

DLR